Home   Weather   Manado   Past weeks

Flag for Indonesia Past Weather in Manado, North Sulawesi, Indonesia — Yesterday and Last 2 Weeks

Now
77 °F

Passing clouds.


Feels Like: 78 °F
Forecast: 76 / 89 °F
Wind: 2 mph from North

Location: Menado / Dr. Sam Ratulangi

Current Time: Dec 11, 2016 at 9:53:37 pm

Latest Report: Dec 11, 2016 at 9:30 pm


Visibility: N/A

Pressure: 29.80 "Hg

Humidity: 94%

Dew Point: 75 °F

Location of ManadoLocation

Past Weather in Manado — Graph

°F

Manado Temperature Yesterday

Maximum temperature yesterday: 91 °F (at 9:30 am)
Minimum temperature yesterday: 73 °F (at 4:00 am)
Average temperature yesterday: 81 °F

High & Low Weather Summary for the Past Weeks

 TemperatureHumidityPressure
High95 °F (Dec 11, 11:30 am)100% (Nov 26, 11:30 pm)29.89 "Hg (Nov 26, 11:30 pm)
Low72 °F (Dec 8, 11:00 pm)49% (Dec 11, 11:00 am)29.68 "Hg (Dec 8, 2:30 pm)
Average80 °F86%29.80 "Hg
* Reported Nov 26 8:00 pm — Dec 11 8:30 pm, Manado, Weather by CustomWeather, © 2016

Note: Actual official high and low records may vary slightly from our data, if they occured in-between our weather recording intervals... More about our weather records

Advertising

Manado Weather History for the Previous 24 Hours

Scroll right to see more
 ConditionsComfort  
Time TempWeatherWind HumidityBarometerVisibility
8:30 pm
Sun, Dec 11
77 °FPassing clouds.No wind94%29.80 "HgN/A
7:30 pm79 °FPassing clouds.2 mph89%29.80 "HgN/A
7:00 pm79 °FPassing clouds.2 mph89%29.77 "HgN/A
6:30 pm81 °FPassing clouds.No wind84%29.77 "HgN/A
6:00 pm82 °FPassing clouds.No wind74%29.74 "HgN/A
5:30 pm82 °FPassing clouds.5 mph74%29.74 "HgN/A
4:30 pm86 °FPassing clouds.7 mph66%29.71 "HgN/A
4:00 pm88 °FPassing clouds.6 mph62%29.71 "HgN/A
3:30 pm90 °FPassing clouds.5 mph63%29.71 "HgN/A
3:00 pm90 °FPassing clouds.9 mph59%29.71 "HgN/A
2:30 pm91 °FPassing clouds.9 mph56%29.71 "HgN/A
2:00 pm91 °FPassing clouds.7 mph56%29.71 "HgN/A
1:30 pm91 °FScattered clouds.8 mph59%29.74 "HgN/A
1:00 pm91 °FScattered clouds.9 mph59%29.74 "HgN/A
12:30 pm90 °FScattered clouds.8 mph59%29.74 "HgN/A
12:00 pm91 °FScattered clouds.5 mph56%29.77 "HgN/A
11:30 am95 °FPassing clouds.5 mph56%29.77 "HgN/A
11:00 am93 °FPassing clouds.3 mph49%29.77 "HgN/A
10:30 am93 °FPassing clouds.2 mph56%29.80 "HgN/A
10:00 am90 °FPassing clouds.2 mph63%29.80 "HgN/A
9:30 am86 °FPassing clouds.2 mph70%29.83 "HgN/A
9:00 am82 °FPassing clouds.1 mph79%29.83 "HgN/A
8:30 am81 °FPassing clouds.1 mph79%29.83 "HgN/A
8:00 am79 °FPassing clouds.No wind84%29.83 "HgN/A
7:30 am77 °FPassing clouds.2 mph89%29.83 "HgN/A
7:00 am75 °FPassing clouds.1 mph94%29.80 "HgN/A
6:30 am73 °FPassing clouds.2 mph94%29.80 "HgN/A
6:00 am72 °FPassing clouds.2 mph100%29.80 "HgN/A
5:00 am72 °FPassing clouds.2 mph100%29.77 "Hg6 mi
4:30 am72 °FLight rain. Passing clouds.2 mph100%29.77 "Hg4 mi
3:00 am73 °FLight rain. Passing clouds.6 mph94%29.80 "Hg2 mi
2:00 am75 °FThunderstorms. Passing clouds.6 mph94%29.80 "Hg2 mi
1:30 am77 °FLight rain. Passing clouds.9 mph89%29.80 "Hg3 mi
1:00 am77 °FPassing clouds.No wind94%29.80 "HgN/A
12:30 am77 °FPassing clouds.2 mph94%29.80 "HgN/A
12:00 am77 °FPassing clouds.1 mph94%29.77 "HgN/A
11:30 pm
Sat, Dec 10
77 °FPassing clouds.No wind89%29.80 "HgN/A
11:00 pm77 °FPassing clouds.2 mph89%29.80 "HgN/A
10:30 pm77 °FPassing clouds.2 mph94%29.80 "HgN/A
10:00 pm77 °FPassing clouds.3 mph94%29.80 "HgN/A
9:30 pm77 °FPassing clouds.3 mph94%29.80 "HgN/A
9:00 pm77 °FPassing clouds.2 mph89%29.80 "HgN/A
Weather by CustomWeather, © 2016

See weather overviewHow to use our weather pages